AF1 KSAN-KLAX

Flight info

Callsign AF1
Flight time 0h 27m
Altitude 10000
Route CWARD2 SLI
Aircraft B748/H-SDE3FGHIM1M2RWXY/LB1

Departure

Time 2026-04-26 15:51
Airport San Diego International Airport (KSAN)

Arrival

Time 2026-04-26 16:19
Airport Los Angeles International Airport (KLAX)
Time Latitude Longitude Altitude Speed Heading
2026-04-26 15:42 32.73666 -117.18503 30 ft 0 kts 355°
2026-04-26 15:46 32.73654 -117.18502 30 ft 2 kts 355°
2026-04-26 15:46 32.73638 -117.18500 28 ft 2 kts 355°
2026-04-26 15:46 32.73621 -117.18499 28 ft 2 kts 357°
2026-04-26 15:46 32.73610 -117.18498 28 ft 2 kts
2026-04-26 15:47 32.73594 -117.18511 26 ft 2 kts 82°
2026-04-26 15:47 32.73601 -117.18529 27 ft 0 kts 140°
2026-04-26 15:47 32.73600 -117.18528 27 ft 0 kts 140°
2026-04-26 15:48 32.73489 -117.18430 30 ft 31 kts 145°
2026-04-26 15:48 32.73359 -117.18399 31 ft 16 kts 166°
2026-04-26 15:48 32.73291 -117.18241 29 ft 34 kts 104°
2026-04-26 15:49 32.73206 -117.17874 28 ft 55 kts 106°
2026-04-26 15:49 32.73170 -117.17732 30 ft 0 kts 107°
2026-04-26 15:49 32.73142 -117.17632 29 ft 21 kts 115°
2026-04-26 15:49 32.73081 -117.17547 29 ft 13 kts 144°
2026-04-26 15:50 32.73034 -117.17542 29 ft 6 kts 204°
2026-04-26 15:50 32.73024 -117.17600 29 ft 8 kts 284°
2026-04-26 15:50 32.73045 -117.17683 27 ft 29 kts 287°
2026-04-26 15:50 32.73176 -117.18247 31 ft 110 kts 284°
2026-04-26 15:51 32.73456 -117.19393 41 ft 175 kts 285°
2026-04-26 15:51 32.73795 -117.20689 337 ft 189 kts 285°
2026-04-26 15:51 32.74207 -117.22223 530 ft 204 kts 297°
2026-04-26 15:51 32.74989 -117.23543 932 ft 195 kts 303°
2026-04-26 15:52 32.75789 -117.24873 1428 ft 201 kts 303°
2026-04-26 15:52 32.76607 -117.26242 1933 ft 204 kts 303°
2026-04-26 15:52 32.77437 -117.27634 2414 ft 210 kts 303°
2026-04-26 15:52 32.78002 -117.28582 2721 ft 216 kts 303°
2026-04-26 15:53 32.79230 -117.30642 3380 ft 240 kts 303°
2026-04-26 15:53 32.80254 -117.32271 3895 ft 247 kts 307°
2026-04-26 15:53 32.81330 -117.33901 4423 ft 251 kts 304°
2026-04-26 15:53 32.82384 -117.35591 4957 ft 261 kts 305°
2026-04-26 15:54 32.83510 -117.37361 5484 ft 276 kts 305°
2026-04-26 15:54 32.84713 -117.39216 6046 ft 291 kts 306°
2026-04-26 15:54 32.85964 -117.41148 6578 ft 306 kts 305°
2026-04-26 15:54 32.87277 -117.43189 7109 ft 318 kts 306°
2026-04-26 15:55 32.88648 -117.45322 7638 ft 330 kts 306°
2026-04-26 15:55 32.90071 -117.47534 8211 ft 340 kts 306°
2026-04-26 15:55 32.91512 -117.49771 8746 ft 343 kts 306°
2026-04-26 15:55 32.92988 -117.52069 9307 ft 356 kts 306°
2026-04-26 15:56 32.94516 -117.54451 9854 ft 368 kts 306°
2026-04-26 15:56 32.96080 -117.56889 9992 ft 371 kts 306°
2026-04-26 15:56 32.97660 -117.59351 10014 ft 384 kts 306°
2026-04-26 15:56 32.99303 -117.61916 10015 ft 389 kts 306°
2026-04-26 15:57 33.00957 -117.64496 9995 ft 393 kts 306°
2026-04-26 15:57 33.02609 -117.67076 10009 ft 393 kts 306°
2026-04-26 15:57 33.04265 -117.69666 10009 ft 393 kts 306°
2026-04-26 15:57 33.05358 -117.71377 9994 ft 392 kts 306°
2026-04-26 15:58 33.07903 -117.74500 10004 ft 394 kts 317°
2026-04-26 15:58 33.09987 -117.76636 9992 ft 395 kts 317°
2026-04-26 15:58 33.12083 -117.78760 9991 ft 394 kts 317°
2026-04-26 15:58 33.14175 -117.80877 9994 ft 394 kts 317°
2026-04-26 15:59 33.16260 -117.83001 9993 ft 394 kts 317°
2026-04-26 15:59 33.18180 -117.84832 9991 ft 395 kts 325°
2026-04-26 15:59 33.20637 -117.86325 9996 ft 399 kts 336°
2026-04-26 15:59 33.23331 -117.87183 9996 ft 402 kts 345°
2026-04-26 16:00 33.26027 -117.87867 9988 ft 402 kts 345°
2026-04-26 16:00 33.28770 -117.88528 9999 ft 402 kts 346°
2026-04-26 16:00 33.31515 -117.89200 10001 ft 402 kts 345°
2026-04-26 16:00 33.34255 -117.89891 9995 ft 402 kts 345°
2026-04-26 16:01 33.36997 -117.90581 9999 ft 402 kts 345°
2026-04-26 16:01 33.39708 -117.91386 9998 ft 400 kts 340°
2026-04-26 16:01 33.42373 -117.92364 10003 ft 401 kts 340°
2026-04-26 16:01 33.45040 -117.93339 10004 ft 400 kts 340°
2026-04-26 16:02 33.47709 -117.94308 9994 ft 402 kts 340°
2026-04-26 16:02 33.50377 -117.95274 9999 ft 400 kts 340°
2026-04-26 16:02 33.53042 -117.96243 10014 ft 402 kts 340°
2026-04-26 16:02 33.53910 -117.96561 10002 ft 402 kts 340°
2026-04-26 16:03 33.57475 -117.97860 10011 ft 399 kts 340°
2026-04-26 16:03 33.60110 -117.98818 10003 ft 389 kts 340°
2026-04-26 16:03 33.62644 -117.99737 9790 ft 375 kts 340°
2026-04-26 16:03 33.65976 -118.00959 8712 ft 380 kts 340°
2026-04-26 16:04 33.68510 -118.01887 7899 ft 383 kts 340°
2026-04-26 16:04 33.71070 -118.02820 7149 ft 384 kts 340°
2026-04-26 16:04 33.72796 -118.03450 6662 ft 385 kts 340°
2026-04-26 16:04 33.75361 -118.04388 5903 ft 385 kts 340°
2026-04-26 16:05 33.77896 -118.05315 5218 ft 373 kts 340°
2026-04-26 16:05 33.80306 -118.06194 4959 ft 348 kts 340°
2026-04-26 16:05 33.82541 -118.07004 4950 ft 325 kts 340°
2026-04-26 16:05 33.84620 -118.07756 4938 ft 307 kts 340°
2026-04-26 16:06 33.86610 -118.08425 4978 ft 289 kts 348°
2026-04-26 16:06 33.88606 -118.08306 4565 ft 294 kts 14°
2026-04-26 16:06 33.90500 -118.07269 4064 ft 306 kts 27°
2026-04-26 16:06 33.92261 -118.05753 3669 ft 318 kts 46°
2026-04-26 16:07 33.93391 -118.03484 3622 ft 316 kts 70°
2026-04-26 16:07 33.93943 -118.00952 3612 ft 309 kts 80°
2026-04-26 16:07 33.94002 -117.98401 3589 ft 302 kts 96°
2026-04-26 16:07 33.93720 -117.95932 3585 ft 293 kts 100°
2026-04-26 16:08 33.93365 -117.93544 3589 ft 285 kts 101°
2026-04-26 16:08 33.93002 -117.91227 3584 ft 278 kts 101°
2026-04-26 16:08 33.92756 -117.89158 3590 ft 271 kts 86°
2026-04-26 16:08 33.93251 -117.87017 3602 ft 262 kts 56°
2026-04-26 16:09 33.94482 -117.85522 3599 ft 245 kts 24°
2026-04-26 16:09 33.96086 -117.85022 3612 ft 242 kts 354°
2026-04-26 16:09 33.97663 -117.85604 3633 ft 236 kts 323°
2026-04-26 16:09 33.98719 -117.87026 3624 ft 230 kts 297°
2026-04-26 16:10 33.99427 -117.88759 3609 ft 230 kts 292°
2026-04-26 16:10 33.99740 -117.90618 3610 ft 227 kts 268°
2026-04-26 16:10 33.99553 -117.92520 3602 ft 227 kts 258°
2026-04-26 16:10 33.99164 -117.94358 3585 ft 228 kts 256°
2026-04-26 16:11 33.98797 -117.96264 3611 ft 236 kts 258°
2026-04-26 16:11 33.98477 -117.98220 3606 ft 241 kts 259°
2026-04-26 16:11 33.98160 -118.00169 3581 ft 229 kts 259°
2026-04-26 16:11 33.97718 -118.01943 3555 ft 212 kts 253°
2026-04-26 16:12 33.97291 -118.03546 3565 ft 190 kts 253°
2026-04-26 16:12 33.96887 -118.05062 3572 ft 191 kts 253°
2026-04-26 16:12 33.96089 -118.08092 3572 ft 191 kts 253°
2026-04-26 16:13 33.95692 -118.09602 3578 ft 189 kts 254°
2026-04-26 16:13 33.95298 -118.11098 3576 ft 189 kts 257°
2026-04-26 16:13 33.95384 -118.12742 3626 ft 208 kts 284°
2026-04-26 16:13 33.95741 -118.14479 3580 ft 206 kts 281°
2026-04-26 16:14 33.95945 -118.16038 3549 ft 179 kts 269°
2026-04-26 16:14 33.95834 -118.17472 3543 ft 170 kts 266°
2026-04-26 16:14 33.95575 -118.20290 3042 ft 165 kts 263°
2026-04-26 16:15 33.95437 -118.21651 2867 ft 164 kts 263°
2026-04-26 16:15 33.95293 -118.23010 2694 ft 167 kts 263°
2026-04-26 16:15 33.95155 -118.24386 2483 ft 161 kts 263°
2026-04-26 16:16 33.94879 -118.27095 2049 ft 167 kts 263°
2026-04-26 16:16 33.94739 -118.28462 1809 ft 157 kts 263°
2026-04-26 16:16 33.94603 -118.29791 1574 ft 159 kts 263°
2026-04-26 16:16 33.94471 -118.31076 1357 ft 158 kts 265°
2026-04-26 16:17 33.94339 -118.32390 1135 ft 159 kts 263°
2026-04-26 16:17 33.94204 -118.33708 903 ft 159 kts 264°
2026-04-26 16:17 33.94070 -118.35030 664 ft 163 kts 264°
2026-04-26 16:17 33.93934 -118.36364 500 ft 156 kts 263°
2026-04-26 16:18 33.93797 -118.37679 293 ft 157 kts 263°
2026-04-26 16:18 33.93589 -118.39738 132 ft 70 kts 262°
2026-04-26 16:19 33.93499 -118.40585 132 ft 23 kts 263°
2026-04-26 16:19 33.93460 -118.40717 127 ft 8 kts 212°
2026-04-26 16:19 33.93375 -118.40604 130 ft 17 kts 84°
2026-04-26 16:20 33.93397 -118.40380 132 ft 37 kts 82°
2026-04-26 16:20 33.93452 -118.39876 128 ft 5 kts 85°
2026-04-26 16:20 33.93433 -118.39811 126 ft 2 kts 137°
2026-04-26 16:21 33.93366 -118.39777 127 ft 0 kts 144°